Lid_Strength_Index
4 4 4 4 3 3 3 3 3 2 2 1 0 -1 -2 -2 -2 -0 1 0 3 7 7 5 5 7 7 7 11 10 10 10 12 13 14 15 16 13 15 15 17 17 16 17 15 18 20 15 16 15 13 16 14 14
4 4 4 4 4 3 3 2 2 2 1 0 -1 -2 -2 -2 -2 -1 3 -0 0 5 7 3 2 2 3 4 7 8 10 12 8 11 11 13 15 17 14 16 13 17 14 15 14 15 12 13 14 13 13 14 15 14
4 4 4 3 3 2 2 2 2 1 0 -2 -2 -2 -2 -2 -2 -1 2 1 3 5 6 6 6 3 1 2 1 8 8 6 7 7 9 11 15 12 16 14 14 14 12 15 14 12 12 13 12 13 13 13 13 13
4 4 3 3 2 2 2 1 0 -1 -2 -2 -2 -2 -2 -2 -2 -1 1 1 3 5 9 9 2 4 1 1 2 2 4 5 6 8 10 11 14 10 14 13 15 13 13 17 16 13 13 11 12 11 11 12 14 14
4 4 2 2 1 1 0 -1 -2 -2 -1 -1 -1 -1 -2 -1 -1 -1 0 0 1 5 9 8 7 5 2 2 3 3 4 5 7 11 11 14 11 12 12 12 15 13 14 15 15 11 10 10 10 11 12 12 13 13
4 3 2 1 0 -0 -1 -2 -1 -1 -1 -1 -1 -1 -1 -1 -1 1 5 1 0 1 8 13 6 7 6 4 4 5 4 6 6 7 10 8 10 12 16 19 13 11 11 12 12 11 11 9 11 11 11 13 13 13
3 2 1 1 0 -1 -2 -1 -1 -1 -0 -0 -1 -1 -1 -1 1 4 6 2 -0 1 6 9 9 8 7 6 6 8 7 7 7 7 8 11 11 9 13 16 13 12 11 11 11 11 12 11 10 10 10 12 14 16
3 2 1 0 -0 -0 -1 -1 -1 -1 -1 -1 -1 -1 -1 -1 0 4 2 -0 -0 4 5 10 10 10 8 11 12 7 9 6 7 7 9 11 12 12 15 16 13 11 11 12 11 11 10 12 13 14 15 16 17 17
3 1 1 1 0 -1 -1 -1 -1 -1 -1 -1 -1 -1 0 2 5 3 -1 -1 0 4 8 10 14 16 8 8 9 10 6 10 7 9 12 11 14 13 15 14 13 10 12 12 13 14 14 14 12 14 15 19 17 17
2 1 1 1 1 -0 -1 -1 -1 -1 -1 -1 2 5 9 5 1 1 4 6 7 5 6 10 9 13 8 10 11 12 8 10 13 11 10 11 13 10 11 11 10 9 10 14 15 13 17 16 12 16 15 16 17 19
2 2 1 1 1 1 -0 -1 -1 -1 -0 4 6 8 6 2 5 9 14 14 13 15 11 9 10 10 6 11 12 8 14 13 17 15 12 16 17 11 10 11 10 9 9 12 11 13 14 14 16 17 19 21 23 24
2 1 1 1 1 1 1 0 0 3 5 6 6 5 6 9 12 16 18 15 15 16 8 9 9 8 8 6 9 11 15 16 18 15 16 20 12 11 16 12 10 12 16 15 16 14 20 21 23 22 25 27 28 28
2 2 1 1 1 2 2 1 1 2 3 5 9 13 13 14 18 20 22 19 17 13 11 12 12 9 9 7 10 14 16 18 16 18 18 14 16 19 21 22 22 23 23 20 23 24 23 26 26 26 28 30 30 29
2 2 1 1 1 2 2 1 1 3 7 12 16 19 17 20 18 16 16 17 13 12 12 10 11 11 8 10 13 17 16 16 21 20 18 16 19 22 22 23 25 25 25 25 25 25 25 26 27 28 28 30 29 27
2 2 2 2 1 2 2 2 3 5 9 13 15 21 21 17 17 16 16 16 13 10 10 11 10 11 10 13 16 16 17 18 17 17 17 18 20 24 23 24 26 26 26 27 28 26 26 27 26 26 27 26 27 27
2 3 4 1 1 2 2 4 7 9 13 14 17 19 19 20 18 17 16 15 10 10 10 10 13 12 15 16 16 18 17 16 17 17 18 19 25 24 25 26 27 27 28 28 27 27 26 26 25 26 25 26 26 26
2 6 3 2 2 2 3 6 9 15 16 16 18 20 18 18 16 16 14 12 10 13 13 11 13 15 13 16 16 14 20 20 20 19 19 24 25 24 25 26 27 27 27 27 25 25 26 27 26 25 26 26 26 26
5 4 3 3 3 4 7 8 12 17 19 16 18 18 19 17 16 14 13 12 13 13 12 13 12 14 15 18 18 20 20 20 19 20 21 23 24 25 25 26 26 25 26 25 24 24 24 25 24 25 25 26 26 27
5 4 2 2 3 7 9 11 11 18 16 16 18 18 18 17 15 13 14 13 14 12 12 13 14 17 19 19 22 22 22 22 23 22 21 24 23 23 23 23 24 25 25 26 26 26 26 26 25 25 26 27 27 27
3 3 2 2 3 8 11 12 13 15 18 16 19 19 18 15 16 15 14 13 13 12 15 17 19 20 21 21 21 22 22 22 23 23 21 22 22 23 23 23 23 24 24 25 25 25 26 26 26 27 27 28 29 29
5 5 4 4 7 8 11 13 15 14 14 16 17 18 17 16 15 15 14 16 16 20 18 21 21 21 21 21 20 22 22 24 25 24 24 23 22 22 22 22 23 23 25 26 27 27 27 28 28 27 28 28 28 29
8 5 6 5 9 10 11 12 13 13 14 15 17 17 17 17 17 19 18 19 22 24 23 24 24 23 24 23 23 22 23 23 22 22 23 23 24 24 24 24 24 25 26 26 27 28 27 27 27 28 29 30 30 30
6 7 8 9 11 12 14 13 16 17 17 18 17 18 18 18 20 21 23 25 24 24 24 25 24 24 24 23 22 22 23 23 23 24 24 25 24 25 25 25 25 26 27 26 26 27 27 26 27 28 29 30 31 32
8 13 13 13 13 15 14 15 13 13 14 16 19 23 21 20 20 21 25 27 26 25 25 25 25 24 23 23 23 23 23 23 24 25 25 27 26 26 25 25 26 25 26 26 26 27 28 28 29 30 31 32 33 33
17 17 18 17 17 17 17 16 15 14 17 17 16 20 20 20 24 25 25 28 29 29 27 26 26 25 25 24 23 23 22 23 25 27 25 24 25 26 26 26 25 25 25 27 28 29 30 31 31 32 33 34 35 36
19 21 22 21 20 20 19 19 18 18 19 18 21 23 23 24 26 25 29 31 31 31 29 30 29 28 27 24 25 26 25 24 26 28 28 27 26 24 26 27 27 28 25 26 29 31 32 32 33 33 34 35 35 36
21 24 23 22 23 22 22 21 20 20 20 21 25 23 24 27 28 31 32 30 32 33 30 29 29 29 27 26 26 25 26 26 27 28 27 27 28 28 26 27 29 29 28 29 30 31 33 34 34 35 36 37 39 41
25 25 25 24 24 24 25 24 24 24 24 25 26 25 28 29 30 34 33 31 30 28 27 27 27 26 26 26 25 25 26 25 26 26 27 28 29 29 30 30 29 28 30 31 31 31 32 33 34 35 36 38 40 39
26 26 26 25 26 27 27 27 26 25 25 24 28 33 34 33 32 33 32 30 27 28 28 27 26 25 25 25 24 25 25 24 24 26 27 28 30 33 33 32 31 31 30 29 27 31 34 33 35 36 38 36 39 41
27 26 26 25 27 29 29 27 27 25 25 26 30 32 32 31 29 28 29 29 29 29 28 27 26 25 25 25 26 27 28 28 26 24 27 30 35 38 38 34 32 31 29 28 28 29 27 33 32 35 34 36 36 36
27 27 25 24 25 25 26 25 25 25 28 28 27 29 31 30 29 27 27 27 28 28 28 27 27 26 25 25 25 25 27 31 31 32 31 32 35 36 36 34 34 33 33 32 32 32 32 34 36 37 36 37 38 37
27 26 24 24 25 25 25 26 25 25 25 27 28 28 29 30 32 30 27 28 29 29 28 27 28 30 28 29 31 32 31 35 35 33 33 34 36 37 35 34 34 32 32 32 33 33 34 35 37 37 38 39 40 40
27 24 24 24 25 26 25 25 26 26 24 26 27 27 28 29 30 29 27 27 28 29 30 30 31 31 31 31 32 32 32 34 31 28 30 30 31 32 34 34 33 32 32 33 34 34 35 35 37 39 39 41 42 42